Other Public Products
Issued by NWS Charleston, SC

Current Version | Previous Version | Text Only | Print | Product List | Glossary Off
Versions: 1 2 3 4 5 6 7 8 9 10 11 12 13 14 15 16 17 18 19 20 21 22 23 24 25 26 27 28 29 30 31 32 33 34 35 36 37 38 39 40 41 42 43 44 45 46 47 48 49 50

787
FPUS82 KCHS 181625
OPUCHS

TEST...KCHS/KSAV Gateway Observations...TEST
National Weather Service Charleston SC
1200 PM EDT MON SEP 18 2017

NOTE: "fair" indicates few or no clouds below 12,000 feet with no
significant weather and/or obstructions to visibility.

SCZ050-WAZ558-NCZ071-TXZ119-213-PAZ071-DCZ001-FLZ074-172-MI076-
NYZ176-178-MAZ016-IL014-TNZ027-NJZ106-GAZ044-MD014-181700-

...Gateway Observations for Charleston International...

CITY           SKY/WX    TMP DP  RH WIND       PRES   REMARKS
Chas Airport   MOSUNNY   84  67  56 NE10G18   30.01F
Seattle        PTSUNNY   52  49  89 S10       29.78S
Charlotte      PTSUNNY   84  70  62 N8        30.08F
Dallas DFW     MOSUNNY   87  69  54 VRB5      30.06R HX  91
Dallas Love    MOSUNNY   86  69  56 CALM      30.06R HX  90
Philladelphia  CLOUDY    73  66  78 NE9       30.10F
Wash National  CLOUDY    75  67  76 NE10      30.10R
Baltimore      CLOUDY    72  67  84 N8        30.09S
Miami          MOSUNNY   86  72  62 NW5       29.96S HX  92
Detroit        CLOUDY    73  67  81 CALM      30.09S
Newark         CLOUDY    73  66  78 N9        30.12S
Laguardia      CLOUDY    71  67  87 NE14      30.12S
J F K          PTSUNNY   76  66  71 NE12      30.12F
Boston Logan   CLOUDY    66  65  96 E9        30.19R
Ft. Lauderdale MOSUNNY   84  75  74 NW8       29.94F HX  92
Chicago O`Hare MOSUNNY   73  52  47 NE3       30.11S
Chicago Midway MOSUNNY   74  56  53 NE8       30.11S
Houston Bush   PTSUNNY   89  76  65 S7        30.02R HX 100
Houston Hobby  PTSUNNY   87  75  67 S7        30.01S HX  96
Nashville      SUNNY     84  66  54 CALM      30.08F
Atlanta        SUNNY     82  61  48 CALM      30.10S

$$

GAZ044-118-TXZ119-213-NCZ071-DCZ001-MDZ014-506-PAZ021-071-NJZ106-
NYZ176-178-MAZ106-OHZ011-021-055-MIZ076-KYZ091-ILZ014-INZ047-
MNZ060-ONZ431-181700-

...Gateway Observations for Savannah International...

CITY           SKY/WX    TMP DP  RH WIND       PRES   REMARKS
Savannah Arpt  MOSUNNY   85  67  54 NE8       30.03F
Atlanta        SUNNY     82  61  48 CALM      30.10S
Charlotte      PTSUNNY   84  70  62 N8        30.08F
Dallas DFW     MOSUNNY   87  69  54 VRB5      30.06R HX  91
Houston Bush   PTSUNNY   89  76  65 S7        30.02R HX 100
Wash National  CLOUDY    75  67  76 NE10      30.10R
Wash Dulles    PTSUNNY   76  67  73 NE8       30.09S
Baltimore      CLOUDY    72  67  84 N8        30.09S
Philadelphia   CLOUDY    73  66  78 NE9       30.10F
Newark         CLOUDY    73  66  78 N9        30.12S
Laguardia      CLOUDY    71  67  87 NE14      30.12S
J F K          PTSUNNY   76  66  71 NE12      30.12F
Boston         CLOUDY    66  65  96 E9        30.19R
Pittsburg      PTSUNNY   79  65  62 NE5       30.12S
Akron          MOSUNNY   80  62  54 VRB3      30.11F
Cleveland      PTSUNNY   83  62  49 SW7       30.11S
Cincinnati     PTSUNNY   78  68  71 S5        30.09F
Columbus       PTSUNNY   78  63  59 S5        30.09F
Detroit        CLOUDY    73  67  81 CALM      30.09S
Chicago O`Hare MOSUNNY   73  52  47 NE3       30.11S
Minneapolis    RAIN      55  53  93 S12       30.09R
Indianapolis   CLOUDY    73  69  87 E5        30.08S
Toronto Canada PTSUNNY   75  66  73 SE9       30.07S

$$




USA.gov is the U.S. government's official web portal to all federal, state and local government web resources and services.